Theta_e
356 359 362 361 361 364 364 361 360 361 362 364 363 363 364 365 366 364 363 363 363 362 360 353 362 360 355 354 353 355 355 357 355 354 356 357 359 361 362 362 361 361 360 360 361 360 360 359 359 358 357 357 357 356 356 355 356 356 356 355 356 356 356 356 357 357 357 357 357 357 358 358 357 357 356 357 357 356 356 356 356 355 355 354 354
359 363 362 362 364 358 361 360 360 362 360 361 368 366 366 366 364 363 364 363 363 367 364 353 349 351 356 354 353 352 357 358 361 355 356 357 358 359 363 362 361 361 360 360 360 360 360 360 359 358 358 357 356 357 357 357 357 357 356 357 357 357 357 357 357 357 357 357 358 358 358 358 357 357 357 357 357 356 356 357 356 355 355 354 354
359 364 364 364 364 364 361 360 359 360 364 361 364 365 366 365 364 363 363 365 363 361 362 358 360 352 355 351 351 354 353 356 354 355 353 355 357 359 361 362 362 361 361 361 360 360 360 360 359 359 358 358 357 357 357 357 357 358 358 358 358 358 358 358 357 358 359 359 358 358 358 358 358 358 358 358 357 357 356 357 356 355 355 354 353
368 365 362 362 363 364 363 365 356 365 365 363 366 364 365 364 364 366 362 364 363 363 362 363 358 350 357 349 352 351 350 351 349 351 353 355 356 358 360 360 362 362 362 361 361 361 360 360 359 359 358 358 358 357 357 357 358 357 358 359 359 359 359 359 359 358 358 359 359 358 358 358 358 358 357 357 357 357 357 357 356 356 355 354 354
368 364 364 363 364 364 362 362 363 366 366 365 364 367 365 366 366 366 367 365 362 367 364 354 356 360 354 347 348 348 349 348 351 349 351 355 358 357 358 359 359 362 362 362 362 361 361 361 360 359 359 358 358 358 359 358 358 359 358 358 358 359 359 358 358 359 359 359 359 359 358 358 358 357 357 357 357 357 357 357 356 356 355 355 354
365 365 368 362 362 363 364 364 367 368 367 369 368 364 365 364 365 367 363 363 361 362 362 362 354 359 356 349 353 362 360 349 349 347 349 352 356 359 358 358 359 358 360 362 362 362 362 362 361 361 361 360 360 359 359 359 359 359 359 358 359 359 359 359 359 359 359 359 359 358 358 358 358 358 358 357 357 357 357 357 357 356 355 355 354
367 366 362 364 360 363 366 366 366 368 369 370 368 365 365 364 365 361 361 364 360 361 357 356 353 359 356 360 357 363 360 355 351 359 354 353 356 356 359 359 359 358 359 359 362 362 362 362 362 362 362 361 361 361 361 360 360 360 361 360 360 360 360 360 360 360 360 360 360 359 359 358 358 358 358 358 357 357 357 357 357 356 356 356 355
366 369 363 363 361 363 367 367 367 369 375 372 370 365 364 363 361 360 360 353 358 355 360 361 360 352 360 364 358 362 360 363 363 354 349 356 356 357 357 360 361 361 362 358 359 361 363 363 363 362 362 362 362 362 362 362 361 362 362 362 362 361 360 361 361 361 361 361 361 360 361 361 361 360 360 360 360 359 358 358 358 358 357 356 355
369 366 370 364 366 363 363 363 366 368 368 369 368 368 365 359 361 361 360 361 354 351 360 365 360 354 354 350 354 361 357 365 355 359 353 359 356 353 358 361 364 368 363 362 361 360 363 364 364 364 363 363 363 363 362 363 363 363 362 362 363 363 362 361 362 361 361 361 362 362 362 362 362 362 362 362 362 361 361 361 360 360 359 359 358
368 369 369 364 365 368 363 364 366 370 370 368 369 364 363 364 362 364 363 362 357 353 354 358 350 350 354 348 357 360 361 365 364 371 362 362 359 355 354 355 359 353 356 359 361 363 359 363 365 365 364 363 363 363 363 363 363 363 363 363 362 363 363 363 363 363 363 363 363 363 363 363 363 363 363 363 363 362 362 362 362 362 361 360 360
368 366 370 365 364 365 365 364 367 369 369 364 365 363 360 365 361 364 366 365 363 360 358 355 358 353 349 351 361 372 362 361 361 366 359 351 351 353 351 355 355 357 357 359 363 363 360 357 360 361 361 365 365 365 364 364 364 364 364 364 365 365 365 365 365 365 365 365 364 364 364 364 364 364 364 364 364 364 364 363 363 363 362 362 361
368 367 368 368 365 365 363 363 366 365 366 359 361 364 361 359 362 362 365 364 366 363 361 363 360 359 358 361 365 364 364 359 358 355 360 355 353 354 350 351 353 354 355 356 357 361 362 362 362 360 359 362 366 366 368 367 367 366 367 366 366 366 366 366 366 366 365 365 366 366 366 365 365 365 365 365 365 364 364 364 364 364 363 363 362
368 366 366 366 366 365 363 362 365 364 365 362 358 360 368 368 370 370 363 364 360 359 359 363 362 364 365 358 359 362 355 362 353 348 347 349 351 352 355 351 352 353 360 359 361 356 361 363 364 364 364 362 363 369 369 368 368 368 368 368 367 366 367 367 367 367 367 367 367 367 366 366 366 366 366 366 365 365 365 364 364 364 363 363 363
370 369 369 366 365 363 363 364 364 363 364 364 360 364 367 366 365 369 368 363 358 354 352 364 357 350 350 350 355 353 359 350 349 348 345 344 345 349 363 346 345 347 354 349 355 352 352 355 363 364 366 366 362 361 363 366 368 368 369 369 369 368 368 368 368 368 368 368 368 367 367 366 366 367 367 367 366 365 365 364 364 364 364 363 363
367 368 367 366 366 367 363 366 363 365 366 367 364 365 369 365 366 367 363 358 361 362 366 357 350 352 366 354 345 344 356 350 348 342 340 341 341 341 343 345 346 348 349 349 351 354 354 355 355 359 371 372 368 366 366 368 366 369 368 366 367 369 369 368 368 368 368 368 368 368 367 367 367 367 366 366 365 365 365 364 364 363 363 363 363
364 364 365 363 366 364 364 367 367 367 366 367 367 365 365 368 364 359 360 354 349 353 359 363 362 364 352 347 345 342 342 349 356 354 346 340 340 339 351 341 345 365 365 354 351 358 358 352 355 362 370 371 378 374 368 371 372 377 375 370 366 365 368 368 367 366 366 366 366 366 366 366 366 366 366 366 366 365 365 364 364 364 363 363 363
364 366 366 367 369 368 367 366 368 365 367 368 368 363 366 364 361 363 364 359 347 351 361 356 362 367 366 354 344 349 341 339 342 351 344 342 338 335 349 340 345 358 359 353 352 359 349 354 359 362 367 366 367 366 365 368 374 377 376 376 371 366 367 368 365 365 365 365 364 365 365 365 365 365 365 365 365 365 364 364 363 363 363 363 363
366 365 368 368 367 368 367 365 368 369 372 370 368 369 366 366 365 363 362 362 374 356 350 362 355 370 364 360 359 346 343 344 345 347 363 346 346 343 338 342 349 349 355 348 352 353 354 350 359 360 359 364 367 364 369 377 384 383 381 378 375 371 370 368 367 363 362 363 363 363 364 365 365 365 365 365 365 365 365 364 364 364 363 363 363
361 364 365 368 368 368 368 368 367 370 369 369 366 363 361 362 364 368 367 370 369 369 355 352 363 361 350 350 347 354 350 350 345 361 348 358 354 339 339 337 342 344 344 342 343 343 359 351 351 353 360 364 359 362 364 371 370 373 371 370 372 370 367 364 363 361 361 362 363 364 365 365 365 365 364 364 364 364 364 363 363 363 363 362 360
364 368 366 367 369 367 370 371 371 367 370 369 365 362 366 365 367 369 370 379 373 364 360 354 359 366 355 352 351 354 351 354 354 352 360 352 350 345 341 339 342 342 341 343 342 344 344 349 346 353 354 354 364 372 372 371 372 366 362 364 363 362 360 360 361 360 361 363 364 365 365 364 364 364 363 363 363 363 362 362 362 361 359 357 355
366 366 367 368 370 370 371 369 365 365 371 368 364 360 363 366 369 371 366 368 374 371 376 369 357 351 367 358 356 364 349 349 351 357 359 349 347 342 341 346 343 337 352 354 343 343 343 349 358 348 356 361 364 370 364 368 372 366 363 364 363 363 361 362 361 361 362 363 364 363 363 364 364 363 363 363 363 362 361 360 359 357 357 355 353
366 368 370 368 367 368 368 367 364 363 364 364 365 365 368 370 368 368 368 366 381 367 368 373 368 363 360 372 362 361 355 357 348 345 347 350 342 345 340 345 350 350 354 342 352 340 343 354 354 356 358 364 369 366 366 369 377 364 362 366 364 365 363 362 360 361 362 361 361 362 364 364 363 363 363 363 362 360 359 357 356 355 354 353 352
363 365 367 366 368 366 365 365 364 368 367 365 364 360 363 363 363 371 368 369 370 369 365 369 377 371 360 370 366 354 354 357 356 353 349 350 351 342 339 348 332 338 346 347 354 344 354 349 352 348 374 362 366 374 372 368 362 362 363 360 360 365 362 362 362 361 358 358 358 360 364 363 362 362 362 361 358 357 356 355 354 353 352 350 349
363 363 362 362 367 367 367 366 367 368 366 368 369 366 362 363 369 369 369 373 374 377 370 365 357 364 359 352 355 352 356 347 343 351 361 360 349 345 343 353 350 336 350 352 345 352 355 349 356 356 362 369 370 381 385 371 371 362 364 361 360 363 362 363 361 360 356 356 355 359 361 360 360 361 359 356 355 355 354 352 351 350 350 348 345
364 361 360 361 367 370 367 369 369 368 375 373 371 372 371 369 371 363 368 368 370 368 371 363 360 363 353 352 348 346 350 341 350 346 342 360 349 349 346 344 358 351 350 339 348 348 340 356 356 358 363 372 369 384 375 372 369 363 364 360 359 364 363 363 360 357 358 356 356 360 360 360 359 358 354 353 352 351 351 349 349 347 346 344 343
361 364 360 359 365 367 369 370 374 372 375 376 373 373 376 370 371 368 362 370 373 369 369 362 369 366 364 358 351 349 351 345 343 341 343 344 347 347 350 354 343 347 354 350 352 346 352 351 352 366 368 372 373 383 375 362 363 360 365 363 358 357 360 361 361 357 357 356 357 358 358 358 358 356 353 352 351 350 348 347 345 344 343 343 343
364 366 368 364 365 369 369 370 372 374 373 375 372 374 374 374 374 375 372 372 370 367 365 359 356 359 364 368 361 351 354 355 348 361 349 351 354 352 362 347 348 350 349 354 349 340 348 354 356 363 368 371 383 381 374 368 351 356 364 369 364 356 357 358 359 358 356 356 356 356 356 356 356 354 352 351 350 348 346 344 343 341 340 341 341
368 368 366 365 365 366 368 367 372 370 372 374 373 371 374 370 374 373 370 366 368 369 369 365 360 362 358 367 375 356 356 352 353 352 357 357 359 359 367 360 352 349 352 357 348 350 347 352 359 364 368 369 378 376 371 364 355 357 360 373 365 358 355 356 355 354 352 353 354 354 354 353 353 351 351 351 348 346 344 341 339 339 339 339 340
362 363 363 371 369 366 364 363 370 371 371 373 371 373 375 371 369 373 369 364 370 370 369 367 373 357 357 357 366 364 365 364 360 361 368 371 363 372 360 364 362 356 350 348 353 352 354 349 354 378 376 373 373 374 366 369 355 360 370 372 369 365 353 350 352 350 350 350 351 352 352 351 349 349 349 347 344 343 341 339 338 337 337 336 337
355 355 362 363 369 367 367 367 364 366 367 366 369 371 374 373 370 374 371 373 373 372 372 368 366 367 362 359 357 358 360 357 359 352 370 371 370 368 367 374 370 368 359 354 351 356 356 351 352 362 376 368 366 371 371 370 359 367 372 370 371 367 347 350 351 351 350 349 348 348 349 347 346 343 341 341 340 338 337 337 336 336 335 334 335
360 367 361 361 363 365 369 364 367 366 367 366 369 370 371 372 370 370 372 374 374 373 374 371 364 366 371 363 369 367 368 357 362 352 365 366 371 373 366 384 376 375 365 365 349 368 360 356 356 358 362 366 360 364 371 369 363 364 372 375 371 357 349 353 351 350 348 345 344 344 343 342 341 340 340 340 338 335 335 334 334 334 332 332 332
355 363 358 358 359 359 358 357 357 359 361 361 363 368 369 369 367 364 366 371 369 370 368 367 361 366 367 365 370 369 372 369 365 359 365 365 363 361 358 366 374 366 369 367 358 354 366 355 356 355 351 360 366 365 371 374 371 361 367 376 370 355 361 358 351 348 346 343 342 340 339 337 337 339 341 338 336 334 334 332 331 331 329 329 328
355 353 357 358 360 360 358 359 356 359 364 363 363 367 368 369 370 370 370 370 368 367 369 367 362 368 371 368 368 368 370 368 366 359 358 362 365 366 368 371 364 364 363 360 353 355 362 367 367 357 352 364 357 370 365 368 370 366 363 375 367 365 367 363 356 347 344 341 338 337 336 336 337 338 338 337 336 334 332 330 328 327 327 325 325
355 351 354 353 358 358 357 358 359 360 364 367 359 363 364 366 365 360 363 370 369 367 368 367 366 363 369 368 368 366 367 365 362 356 356 352 356 355 358 356 362 358 362 360 358 357 354 364 361 364 365 365 353 366 372 369 366 373 370 371 374 369 371 365 359 352 344 339 335 334 335 335 335 337 338 337 335 331 330 328 326 325 324 323 323
354 355 354 352 358 359 357 359 359 361 364 361 360 361 362 364 363 360 358 361 364 363 363 365 364 365 364 368 364 365 361 361 362 359 356 355 353 355 354 353 354 353 357 359 358 355 357 359 366 359 359 371 369 369 371 368 370 372 369 366 364 363 372 366 362 355 342 338 334 333 333 333 334 335 334 334 333 332 329 325 324 323 322 322 322
350 354 356 354 358 362 358 360 360 357 363 359 357 358 364 363 363 364 364 364 360 360 361 362 360 362 361 362 360 360 362 362 363 361 360 358 358 361 365 367 365 365 372 371 360 359 359 357 365 364 367 360 366 369 368 366 365 364 366 369 373 364 365 367 364 354 342 337 335 334 333 332 332 331 331 332 329 326 326 324 324 324 323 322 321
349 350 355 358 359 360 355 357 361 358 358 359 359 356 357 359 361 360 360 363 364 361 359 360 363 362 361 359 359 360 362 361 362 359 358 359 358 358 358 359 363 364 361 360 364 367 363 359 361 366 370 369 368 367 367 361 364 372 375 369 365 367 374 371 366 353 340 335 335 333 332 332 331 330 329 328 326 325 324 323 324 323 322 320 320
349 350 352 352 356 358 356 355 357 360 359 360 361 360 355 355 358 358 360 361 358 360 361 360 360 360 358 359 359 361 359 357 356 357 360 359 359 355 356 362 360 359 360 363 365 364 363 362 362 363 369 366 364 363 366 369 366 363 364 370 367 367 370 369 357 348 343 338 337 335 332 331 331 328 328 327 326 325 325 324 322 322 321 319 316
348 346 349 351 353 357 357 356 355 358 360 359 362 363 361 357 355 357 355 358 357 357 356 355 355 356 356 356 358 359 359 359 357 357 360 361 356 356 359 360 360 364 362 359 361 362 362 361 361 362 360 362 362 361 368 368 365 363 362 362 360 366 373 372 370 354 346 341 341 339 337 335 334 328 322 324 325 325 325 324 324 322 319 317 316
347 346 345 348 352 352 356 356 356 358 360 359 361 363 362 359 356 357 355 354 353 354 353 354 353 351 352 352 351 354 356 360 360 359 359 359 359 356 358 360 361 360 358 359 360 360 359 358 358 358 361 361 367 367 376 374 366 366 366 361 357 362 365 377 370 370 356 349 349 342 339 337 334 329 323 324 326 326 326 326 326 326 324 320 318
347 346 346 344 349 350 352 355 356 356 356 358 358 360 361 360 357 353 355 354 353 353 353 351 352 354 352 350 350 350 356 368 362 362 361 365 361 359 360 363 364 361 360 358 359 362 362 361 360 363 364 364 364 362 361 356 355 355 365 364 361 367 370 365 368 371 372 361 357 349 343 342 337 333 328 326 326 327 326 327 327 328 325 320 320
351 351 350 348 345 349 349 353 355 355 355 355 356 349 351 359 358 352 350 353 353 351 354 353 350 350 349 348 348 364 365 363 356 356 354 358 366 362 366 364 361 362 363 362 360 360 359 357 356 356 354 352 353 356 354 355 359 361 359 361 357 359 361 360 367 369 376 369 362 361 349 348 343 340 334 330 330 331 327 327 325 324 325 322 321
354 357 352 349 345 343 348 349 352 351 352 352 346 337 338 344 356 356 351 351 353 353 352 354 353 350 348 350 350 358 362 368 362 352 351 350 355 361 362 369 376 370 361 360 360 361 360 357 357 355 352 352 354 355 354 353 353 356 361 368 367 371 361 356 351 366 373 365 366 361 364 360 348 344 341 338 336 332 330 327 332 328 323 323 321
363 360 354 352 352 347 343 346 347 349 351 348 334 333 335 335 345 356 353 350 347 349 350 348 349 350 349 346 345 343 344 351 358 363 355 351 349 352 353 354 355 358 364 365 361 360 359 357 356 354 353 354 357 359 356 352 364 365 363 359 358 356 356 355 355 353 372 366 364 364 363 370 369 364 355 348 343 335 332 330 327 324 324 323 322
356 359 360 357 355 354 349 349 345 347 350 342 332 329 332 333 334 346 352 351 347 343 345 348 347 348 350 350 347 344 339 354 357 356 364 359 349 346 348 350 351 351 342 341 348 366 366 362 357 356 356 356 355 357 359 357 362 354 359 358 356 354 353 351 353 354 359 371 365 363 358 362 365 362 360 366 348 341 331 325 325 324 323 323 323
351 356 355 357 359 359 356 354 355 351 348 343 330 326 328 329 331 337 352 350 350 348 347 346 346 348 350 351 350 349 348 348 353 359 362 363 360 357 355 356 357 358 351 342 339 340 349 358 361 357 361 363 359 362 367 369 362 356 355 352 355 355 356 355 360 362 367 371 363 360 356 358 362 360 356 360 335 332 327 323 322 323 323 322 322
351 351 350 354 356 359 358 356 355 354 349 336 327 324 324 325 329 334 352 352 349 348 349 350 355 353 354 354 353 352 355 356 352 352 361 367 365 363 359 359 359 359 358 358 355 352 350 352 353 358 360 363 363 364 365 368 364 364 362 359 359 360 362 366 364 364 361 363 361 357 347 352 359 357 356 348 334 329 326 320 321 322 321 320 321
352 354 352 352 354 358 358 357 354 355 353 335 326 321 321 323 327 343 351 354 352 350 349 351 352 354 356 359 362 360 358 358 360 349 353 364 367 365 363 361 359 359 359 358 347 348 356 353 351 353 357 359 351 360 362 361 362 365 364 365 365 362 358 355 354 357 355 357 358 355 351 351 359 355 356 348 336 330 326 322 321 321 319 320 320
354 352 352 355 358 358 357 358 359 358 358 345 328 318 319 320 326 346 350 353 354 352 352 355 357 357 356 356 358 357 360 363 356 340 337 351 360 362 365 365 364 362 361 362 344 336 336 335 334 336 337 338 337 335 335 337 353 362 369 364 358 357 355 352 354 355 353 352 351 351 352 351 356 356 357 351 338 330 325 324 322 320 318 318 319
354 352 353 353 355 357 357 357 356 359 358 353 332 316 316 318 331 347 350 352 353 354 355 357 358 359 361 363 366 358 357 358 347 337 333 344 354 357 358 359 361 362 363 364 363 354 332 330 332 333 334 335 336 336 337 335 333 343 355 352 358 356 350 348 344 344 344 344 346 353 346 348 362 360 355 355 339 340 330 328 324 321 319 316 316
356 355 355 354 355 356 356 357 361 360 359 350 333 317 315 315 329 349 354 354 354 354 355 356 359 359 360 363 367 359 357 354 338 335 330 342 354 356 356 356 355 355 358 362 361 362 360 352 350 350 347 344 347 348 350 341 340 350 356 357 357 354 348 346 345 345 342 343 346 356 345 348 355 357 353 352 346 342 337 330 325 323 321 322 320
Wind_Speed
4 5 3 2 3 3 3 3 3 2 3 2 2 3 2 1 1 0 1 2 3 1 2 5 3 3 3 3 4 4 4 4 7 7 6 5 4 6 10 9 9 8 8 8 7 7 6 6 5 5 4 4 3 3 2 2 2 1 1 1 2 3 4 4 5 5 6 6 6 7 7 7 7 6 6 6 6 6 6 5 5 5 4 5 5
5 3 3 3 3 4 2 4 4 3 3 3 2 1 2 2 1 0 1 1 1 1 3 4 6 4 3 4 3 5 5 4 3 6 6 5 5 5 10 9 8 8 8 8 7 7 6 6 6 5 5 4 4 4 3 3 2 2 2 3 4 4 4 5 5 6 6 7 7 7 6 6 7 7 7 7 7 6 6 6 6 6 5 5 5
5 5 3 2 3 4 4 4 3 3 3 3 4 3 2 1 1 1 2 1 2 3 3 3 3 4 4 4 4 3 4 4 5 6 7 5 5 4 6 10 9 8 7 7 6 6 6 6 6 5 4 5 4 3 3 3 4 4 4 4 5 5 5 6 6 7 7 7 7 7 7 7 7 7 7 7 7 7 7 7 7 7 6 6 5
1 3 3 2 1 1 2 2 1 3 3 3 3 4 4 2 2 1 1 2 2 4 4 2 2 4 3 4 3 3 4 4 6 5 6 6 5 5 4 6 9 9 8 7 7 6 6 6 5 6 5 4 5 5 4 5 5 5 5 5 5 6 6 6 7 7 7 7 7 7 7 7 7 7 8 8 8 8 7 7 7 7 7 7 6
1 1 3 3 2 2 3 3 4 4 2 3 4 3 3 3 2 1 1 2 4 1 1 3 3 1 3 4 4 5 4 6 3 6 7 6 6 5 5 5 5 8 9 8 8 8 7 7 7 6 6 6 6 6 6 6 6 6 6 7 7 7 7 7 7 7 7 7 7 8 8 7 8 8 8 8 8 8 8 7 8 8 8 7 7
3 1 2 3 2 1 2 3 3 3 4 3 2 3 1 1 3 2 1 1 3 1 2 3 3 2 3 3 3 2 2 2 3 4 5 6 6 5 5 5 5 4 5 9 9 9 9 8 8 8 8 7 7 8 7 7 7 7 8 8 8 8 8 8 8 8 8 8 8 8 8 8 8 8 8 8 9 9 9 9 9 9 9 9 8
5 3 2 3 2 2 2 2 3 3 3 3 1 3 3 3 1 1 1 1 1 2 4 3 3 1 3 2 2 0 1 2 3 2 3 5 6 7 7 7 6 6 5 5 9 11 11 10 10 10 9 9 9 8 8 9 9 9 9 9 9 10 9 9 9 9 8 8 8 8 9 9 9 9 9 9 9 9 10 10 10 10 10 10 10
5 2 3 2 2 2 3 3 4 2 1 2 1 3 3 3 2 2 1 3 3 3 3 3 2 3 2 2 4 3 2 2 1 2 4 3 3 4 5 5 7 5 7 6 5 7 13 12 12 11 10 11 10 10 10 10 10 10 10 11 10 10 10 10 9 9 9 9 9 9 9 10 10 10 10 11 11 10 11 11 11 11 11 11 11
5 3 2 3 2 3 3 3 2 2 3 3 2 1 2 5 2 3 2 0 1 5 1 1 1 3 3 4 3 2 3 2 5 1 5 3 3 4 3 3 4 10 7 6 6 5 10 14 13 12 12 12 11 11 11 12 11 11 12 11 11 11 10 10 10 10 9 10 10 10 10 10 11 11 11 11 12 11 11 12 12 12 12 12 12
5 3 2 2 3 2 4 3 3 3 3 2 1 1 2 1 3 2 2 1 2 2 0 1 3 3 3 4 3 3 3 2 2 2 3 2 3 4 5 6 3 5 6 6 8 6 5 10 13 12 12 12 12 12 12 12 13 13 13 12 12 11 11 10 10 10 10 11 11 11 11 11 11 11 11 12 12 12 12 12 12 13 13 13 13
5 4 0 3 4 4 4 3 2 2 2 3 2 3 3 3 3 2 0 2 2 0 1 4 1 2 3 3 2 1 3 2 3 2 3 4 4 3 6 6 6 6 7 4 8 7 6 5 6 5 7 13 13 13 13 13 13 13 13 12 12 12 11 11 11 11 11 11 11 12 12 11 11 12 12 12 13 12 12 13 13 13 13 13 13
6 5 3 4 4 4 3 2 2 2 3 4 3 2 2 1 2 4 2 1 2 3 3 2 2 2 3 1 1 2 2 3 3 4 3 3 3 4 3 6 4 4 4 3 6 8 8 6 6 7 6 10 14 13 13 13 13 12 13 13 13 12 12 11 12 11 11 12 12 11 11 11 12 12 12 12 12 12 12 12 12 13 13 13 13
6 5 4 5 4 4 3 2 2 2 3 2 1 4 3 1 1 4 3 2 1 4 3 0 2 1 2 1 2 2 3 3 4 4 6 3 4 5 4 5 5 6 3 3 2 6 8 8 7 7 6 5 7 11 13 13 12 12 12 12 13 12 12 12 11 11 11 12 12 11 11 11 11 12 12 11 12 12 12 12 12 13 14 14 13
6 4 5 6 4 4 4 3 2 1 1 3 3 3 3 3 3 1 1 1 2 4 1 1 2 3 2 2 2 3 3 7 7 9 7 6 6 5 2 4 5 4 3 4 3 3 7 5 4 4 7 5 5 6 7 8 9 12 11 12 12 12 12 11 11 11 11 12 12 11 11 11 11 12 11 11 11 11 11 11 11 12 12 13 13
6 4 4 5 5 4 3 3 3 2 2 2 5 2 1 3 3 1 2 3 4 2 2 3 1 1 1 1 1 3 2 4 8 5 7 6 4 6 7 5 7 5 6 5 4 4 3 4 5 3 2 1 4 6 6 6 8 12 13 12 11 11 11 10 10 10 11 11 11 11 11 11 11 12 11 10 10 10 11 11 11 11 11 11 10
8 6 4 4 5 4 4 3 3 3 3 3 3 2 3 2 3 3 4 3 3 3 2 1 0 1 1 2 2 2 1 1 2 2 2 6 7 3 1 7 5 1 2 4 6 3 3 5 5 4 2 3 0 1 4 6 12 12 11 10 11 10 9 9 10 9 9 10 9 10 10 10 10 10 11 10 10 10 9 9 10 10 10 10 9
6 7 5 5 4 4 4 3 4 4 4 3 3 4 5 3 3 4 3 3 4 1 2 2 2 2 1 2 1 1 1 4 1 3 4 3 6 6 5 7 4 3 2 3 4 2 4 5 5 4 4 3 2 4 5 3 5 4 6 7 7 8 7 8 9 9 9 10 10 10 9 9 9 9 10 10 10 9 8 8 8 9 9 8 8
5 7 7 5 4 4 4 4 4 4 2 2 3 2 2 3 5 4 4 2 1 2 2 2 2 2 2 2 1 2 3 4 1 1 2 3 5 5 5 7 5 5 4 4 3 3 7 5 5 6 4 4 4 5 3 1 4 2 4 3 7 5 6 6 7 8 8 9 9 9 10 8 8 9 9 9 9 8 8 7 7 7 8 8 8
7 6 7 6 4 3 3 4 4 5 3 2 3 6 5 4 4 2 2 2 2 1 2 2 3 2 6 2 4 3 2 3 1 1 2 4 3 3 5 8 8 6 5 4 6 6 2 6 7 5 4 4 4 5 3 2 5 7 7 5 4 4 3 4 5 7 7 8 9 9 9 9 8 7 7 8 8 8 7 7 6 6 8 9 9
5 6 6 7 6 5 3 3 2 2 4 4 4 3 2 3 5 1 2 2 2 3 2 2 3 1 5 5 3 2 4 2 2 2 0 1 3 6 5 8 7 8 8 8 4 6 3 3 4 8 5 4 4 3 3 4 5 4 4 5 4 2 2 3 5 6 7 8 8 8 8 8 8 7 7 7 7 8 7 7 7 7 8 9 9
5 7 6 6 6 5 4 3 3 3 4 3 3 2 4 3 3 2 2 2 1 2 0 2 4 2 2 3 5 1 3 2 0 2 1 2 1 1 3 3 3 6 2 2 5 5 4 2 1 8 5 4 3 2 4 4 5 4 5 4 4 3 2 3 5 6 7 7 7 7 7 7 7 7 7 7 7 8 7 7 8 8 8 9 9
5 6 5 7 6 5 5 5 5 5 3 2 3 6 3 3 3 3 3 2 1 3 2 1 2 3 3 0 2 3 4 2 3 4 2 2 3 2 3 3 3 1 2 5 2 8 4 2 1 1 4 3 3 4 4 3 2 4 4 6 4 3 3 4 4 5 4 6 6 6 7 7 7 7 7 8 8 8 7 8 7 8 9 10 10
6 6 6 6 8 6 5 6 6 4 4 3 4 5 5 4 4 2 2 2 2 2 0 1 0 1 1 2 2 2 2 2 0 3 2 1 2 5 2 1 5 3 4 4 4 5 1 4 3 4 1 4 4 2 3 4 2 4 8 7 4 4 4 5 3 1 3 3 5 6 6 7 8 8 8 8 8 7 8 8 8 9 10 11 11
6 6 6 8 6 6 6 5 5 4 5 5 1 2 1 4 4 3 2 2 3 1 2 2 3 3 3 4 5 6 2 3 3 3 2 0 2 4 5 1 2 4 2 1 3 2 3 4 2 4 4 4 3 0 1 4 2 7 6 7 6 4 4 3 2 1 1 3 4 4 6 7 7 8 8 8 8 8 8 9 9 10 10 11 12
6 7 7 8 6 5 6 4 5 4 2 4 1 3 1 2 3 5 3 3 2 2 1 2 2 2 4 2 5 5 3 5 3 2 3 3 5 3 3 4 1 1 3 4 2 3 5 3 7 4 3 1 3 1 0 3 1 3 5 5 6 4 3 2 2 1 1 2 2 4 6 6 6 6 7 7 7 8 9 9 9 10 11 12 13
6 5 7 7 6 6 5 6 5 5 4 3 3 3 2 3 2 2 4 3 3 3 3 3 2 2 2 4 3 4 3 2 4 3 5 4 3 2 2 3 4 3 1 1 2 3 2 5 6 4 3 2 2 2 0 5 3 7 8 6 4 3 3 3 2 3 1 1 3 4 5 6 6 7 7 7 7 8 9 9 9 10 11 12 13
5 5 4 8 6 6 6 4 5 4 5 4 4 3 3 4 1 1 1 2 2 3 3 4 4 3 2 2 2 5 3 4 4 1 3 3 3 3 3 4 3 4 1 1 1 3 2 3 7 5 4 3 1 2 2 1 2 4 9 6 4 5 5 5 4 4 2 3 4 4 4 5 6 6 6 7 7 8 8 8 9 10 11 12 13
3 4 4 6 6 6 6 5 5 5 4 4 4 4 3 3 4 3 4 2 3 2 3 3 3 3 3 1 0 3 6 4 4 3 6 5 4 3 2 2 2 2 3 1 1 2 2 3 3 5 5 4 3 2 5 5 4 6 3 6 5 3 6 6 5 4 4 5 4 5 5 5 5 5 6 6 6 6 7 8 9 10 11 12 13
5 5 5 3 4 5 6 6 5 5 5 4 4 4 4 4 4 3 3 4 4 3 3 3 2 4 3 4 2 2 3 3 3 3 4 2 4 3 2 2 2 1 2 2 1 1 4 2 2 0 1 3 5 4 6 4 4 3 0 7 6 5 8 8 7 5 5 5 5 5 6 6 6 5 6 6 5 5 6 7 8 9 10 11 12
7 7 5 6 4 5 5 5 7 5 6 6 5 5 4 3 4 4 4 3 2 3 3 3 3 3 3 3 5 3 3 3 2 5 3 2 1 2 2 1 2 1 1 0 2 1 2 6 2 2 3 4 6 4 4 3 6 4 1 5 7 5 10 10 8 6 5 5 6 7 7 7 7 6 6 5 5 5 5 6 7 8 9 11 11
7 4 7 7 5 5 4 4 5 6 5 5 6 4 5 4 4 4 4 3 2 3 3 2 3 3 2 3 1 2 2 3 3 4 5 3 2 2 2 1 1 1 1 0 1 2 2 2 3 2 3 6 2 0 0 4 5 5 2 2 6 10 12 8 9 7 6 7 7 7 8 8 7 7 6 5 5 4 4 5 6 7 9 10 11
7 5 7 6 7 8 8 7 7 7 6 5 6 5 5 5 4 4 5 4 4 3 4 4 5 4 3 3 2 2 2 2 3 4 3 4 4 5 4 2 1 1 1 1 1 3 2 3 3 3 6 2 2 2 3 2 5 6 3 3 8 11 7 5 8 9 8 8 8 8 9 9 8 7 6 6 5 4 4 4 5 7 8 9 10
7 7 6 7 8 7 8 7 8 6 6 6 5 5 5 5 4 3 3 6 5 4 3 4 5 2 3 3 3 3 2 2 3 3 3 3 3 2 2 2 3 4 4 3 3 4 3 3 2 3 5 3 2 1 3 2 2 3 4 2 8 7 6 6 5 8 9 9 9 10 10 9 9 8 7 6 5 4 4 4 4 6 7 8 9
8 10 9 9 8 8 8 7 6 6 7 5 6 4 6 5 5 5 5 3 5 5 3 4 4 4 3 4 3 3 4 4 3 4 3 3 5 4 5 5 3 4 4 5 5 2 4 2 4 4 3 3 5 3 1 0 3 1 2 2 6 7 6 6 5 5 10 10 11 11 10 10 9 9 8 7 6 5 4 3 3 4 5 6 8
8 8 10 10 7 8 7 6 7 5 7 7 5 5 5 6 6 6 6 6 4 4 5 4 4 4 4 3 4 4 5 5 5 5 5 4 4 3 6 6 6 5 6 5 4 4 3 3 3 3 3 2 2 2 2 2 3 3 3 4 5 2 6 7 6 5 10 11 12 11 11 11 10 10 9 7 6 5 5 3 1 2 3 5 6
11 8 9 11 8 7 7 6 7 6 6 7 7 6 6 7 7 6 5 4 7 6 6 6 6 5 5 4 5 6 5 5 4 5 5 5 4 4 3 2 3 3 2 2 5 4 4 4 2 3 2 4 3 3 3 4 3 4 4 3 2 3 4 7 7 6 9 13 12 12 12 11 11 10 10 8 8 7 5 4 3 2 1 2 4
11 10 7 8 9 8 9 8 6 8 7 7 7 8 7 6 7 7 6 5 4 6 7 6 6 5 6 6 6 6 5 4 4 5 5 5 5 4 4 4 3 3 3 3 3 2 3 4 3 3 3 3 3 4 4 4 5 3 2 3 4 4 2 1 7 4 9 10 9 10 10 10 10 11 10 10 9 8 6 5 4 4 3 1 3
9 10 11 9 9 10 10 9 8 7 7 7 7 8 8 8 7 7 6 6 6 5 5 6 6 6 5 6 6 6 6 6 6 5 5 6 5 6 5 4 4 4 4 4 3 4 4 4 4 4 3 4 3 4 5 5 3 2 3 1 3 3 3 3 5 5 6 5 5 5 6 7 9 11 11 10 9 8 7 6 5 4 4 3 0
12 11 13 12 9 9 11 10 10 8 8 8 7 8 7 7 7 8 8 7 7 6 7 7 7 7 7 7 6 6 6 6 6 6 5 6 6 6 6 5 4 3 4 5 5 5 4 4 5 5 5 5 5 5 4 5 4 4 3 3 4 4 3 3 4 6 6 6 8 10 9 9 10 9 10 10 10 9 9 7 6 5 5 5 2
13 12 12 13 11 10 10 11 10 8 8 9 8 8 8 8 6 7 9 7 8 8 8 8 8 9 8 9 9 8 8 7 7 6 6 5 5 6 5 5 5 5 5 4 4 5 6 6 6 5 5 5 4 3 1 0 2 2 4 4 6 5 6 3 4 4 6 7 6 7 7 8 8 8 8 8 9 10 9 8 8 6 6 6 4
12 12 12 11 12 12 10 10 10 10 10 10 9 8 9 10 8 7 8 9 8 7 8 9 8 8 8 9 9 10 8 12 13 11 10 8 5 5 6 5 4 5 6 6 6 5 4 4 4 3 4 4 3 3 4 6 6 7 5 6 6 5 3 1 3 4 4 6 8 8 8 8 6 7 6 6 6 8 8 9 7 9 8 6 6
9 9 8 9 9 12 12 11 11 11 10 9 11 15 13 9 9 10 8 7 8 8 7 6 8 9 10 10 10 13 13 15 16 16 15 14 12 7 4 5 7 5 5 5 5 5 5 5 5 4 5 6 6 6 8 8 7 6 5 5 5 5 3 5 3 2 2 3 3 3 7 7 7 7 7 8 7 9 6 6 6 7 7 8 7
7 8 9 9 10 9 11 12 12 12 12 11 15 16 16 16 11 9 8 7 7 7 8 7 7 7 7 7 8 10 10 8 11 16 16 16 15 12 11 6 3 4 5 5 5 5 5 6 5 5 6 6 5 5 5 3 3 3 2 2 3 2 3 2 4 1 3 5 3 3 3 7 9 8 9 8 8 8 8 8 10 13 11 10 8
5 6 8 9 8 9 9 11 13 13 12 13 15 18 18 18 15 10 9 8 8 7 8 9 8 8 8 9 9 10 8 8 5 8 13 15 15 15 14 14 13 9 7 5 6 6 6 7 6 6 6 6 5 5 5 4 3 1 1 2 1 2 3 3 2 3 2 4 3 2 5 4 5 6 6 9 9 9 10 12 15 14 13 12 9
8 6 5 6 8 8 9 7 9 12 12 15 15 17 19 19 19 15 10 9 10 9 8 9 9 8 7 7 9 9 10 11 11 9 9 11 15 17 17 16 15 14 13 12 9 6 5 7 8 8 7 6 7 6 4 4 3 4 2 3 3 3 4 5 5 4 4 4 3 3 5 5 4 4 7 5 10 9 10 14 17 15 15 13 11
16 14 10 8 6 7 8 9 7 7 9 14 18 18 19 20 20 17 12 11 9 9 9 9 9 9 9 8 8 8 8 8 6 5 6 8 9 11 11 10 9 12 14 14 14 14 10 8 7 8 7 5 7 5 4 3 2 4 4 5 4 5 4 5 4 4 3 4 6 3 4 6 5 6 8 3 8 8 9 14 18 17 16 14 12
4 7 11 13 9 9 9 10 10 11 12 13 17 20 20 21 21 16 13 14 11 9 8 7 6 7 7 9 9 9 7 6 7 8 5 6 7 8 9 10 11 11 10 10 11 10 11 10 11 11 10 8 8 7 6 4 5 4 5 6 6 5 5 4 4 4 5 4 5 4 7 8 4 5 6 5 6 7 6 12 17 17 16 15 13
7 6 8 8 12 11 10 11 12 13 14 16 13 16 19 20 21 11 12 12 11 10 9 8 7 6 7 6 5 7 7 8 9 11 10 6 7 9 9 9 10 10 11 12 14 14 13 13 13 14 13 13 13 10 8 7 6 6 7 6 5 4 6 7 8 6 6 5 7 8 6 7 5 6 4 6 8 7 6 6 10 14 15 14 13
3 6 8 8 7 11 13 11 11 11 11 13 12 14 16 18 13 9 12 11 10 11 10 9 7 7 7 7 8 7 7 6 9 12 12 10 7 9 9 10 10 10 11 10 14 18 18 19 20 20 20 19 17 16 15 12 8 4 4 5 8 7 7 8 8 6 7 5 5 6 5 6 6 6 5 6 8 8 8 8 7 10 13 13 13
5 6 8 8 9 9 7 7 12 11 12 12 10 11 14 16 14 11 10 10 10 10 10 9 8 7 8 12 11 9 10 9 10 11 13 10 9 10 10 11 11 12 11 10 7 10 20 21 21 22 22 21 21 18 15 14 14 7 7 10 8 6 7 6 7 6 7 6 6 3 4 5 3 5 5 4 4 1 7 6 7 7 8 8 11
4 5 7 8 9 8 10 9 11 11 10 10 10 6 12 15 14 9 9 9 10 10 9 9 9 8 8 10 13 13 11 12 15 13 12 11 10 11 11 11 12 13 11 8 9 7 7 9 10 10 11 14 13 11 12 16 14 9 9 11 9 8 9 8 7 6 7 7 6 4 5 4 4 5 6 3 5 3 3 5 6 6 5 5 6
Wind_Direction
175 194 190 209 178 127 141 152 149 136 150 180 158 140 138 207 60 38 327 343 338 51 131 121 130 110 114 115 101 122 90 99 126 136 132 141 153 160 160 161 161 162 166 172 170 162 163 168 166 167 163 156 147 147 170 147 169 201 237 287 275 291 300 308 305 307 311 311 318 321 326 327 326 320 320 322 324 325 327 328 321 323 326 327 325
185 216 184 181 153 138 135 171 160 162 185 152 127 116 119 115 207 133 76 10 312 285 288 123 126 133 121 120 131 117 139 131 141 131 143 147 138 155 167 167 167 171 177 175 169 168 168 171 176 165 175 170 168 201 175 205 262 265 262 275 285 284 286 292 291 297 302 309 313 317 319 314 312 313 315 315 316 319 321 319 319 318 319 314 317
168 172 162 136 143 172 161 141 162 185 155 147 166 133 109 147 136 44 32 313 267 290 286 124 113 123 138 134 121 135 131 149 140 148 142 128 132 149 172 173 176 183 184 180 176 182 182 177 178 185 188 190 206 213 216 239 241 253 268 276 279 283 288 294 297 295 297 301 305 308 310 308 306 310 306 308 307 312 315 316 315 313 310 312 310
178 134 139 133 154 119 95 107 87 149 174 137 137 139 144 146 123 76 35 288 287 266 256 126 116 104 150 125 136 130 161 158 165 147 126 138 140 153 153 181 184 188 189 189 192 195 196 193 198 199 201 219 219 231 242 247 249 253 264 279 280 282 286 283 282 290 295 300 304 303 299 302 303 301 302 302 306 308 309 308 307 305 304 304 306
260 109 136 155 124 108 205 133 135 100 78 178 121 121 118 142 127 155 258 309 285 251 340 97 126 166 98 148 167 166 163 198 141 147 144 141 152 146 165 173 182 193 196 201 205 205 205 204 214 209 218 218 235 238 246 259 263 262 262 265 269 276 281 282 286 291 296 298 295 297 297 298 300 299 300 301 301 301 299 298 297 296 297 297 293
125 50 282 126 112 97 74 93 123 133 102 45 66 89 151 86 83 52 270 275 288 64 40 290 106 165 197 89 91 72 26 93 181 129 140 154 150 157 160 164 165 174 197 206 213 215 213 216 219 221 222 230 235 241 248 254 258 262 266 268 274 276 278 283 286 289 291 292 293 293 295 293 293 295 292 292 293 293 292 292 291 291 289 288 286
144 178 213 117 141 157 129 116 105 106 129 152 172 161 121 98 60 40 343 280 317 267 226 188 131 92 68 104 77 346 187 101 45 140 139 118 152 167 169 168 164 174 187 181 211 217 217 221 225 225 231 235 239 245 249 250 257 262 264 269 270 270 271 276 279 280 282 285 285 287 291 292 289 288 290 290 287 285 287 286 286 286 287 285 283
115 133 106 121 101 101 115 73 55 11 130 81 22 95 114 120 106 148 90 0 20 326 307 94 151 130 107 135 118 196 185 134 118 171 119 143 172 141 167 164 161 177 181 178 181 205 213 219 225 227 230 234 239 246 248 250 255 256 260 262 265 267 271 271 273 275 277 279 280 280 279 281 283 285 285 287 288 285 285 286 285 282 281 281 280
113 97 122 128 136 115 100 80 49 57 51 54 346 128 127 124 160 106 82 33 64 232 251 58 106 131 161 153 157 155 96 232 187 156 136 168 137 163 166 169 169 173 181 181 172 180 204 214 219 226 228 231 234 239 244 250 252 255 258 262 263 265 267 267 270 274 276 277 277 277 278 280 281 282 284 284 284 283 281 281 280 279 277 276 277
108 114 111 122 91 60 90 76 39 24 44 65 292 27 46 53 103 86 132 107 301 345 28 112 197 147 161 121 137 199 129 203 70 148 138 182 183 185 171 161 169 169 203 175 171 166 188 207 217 221 227 231 232 232 237 243 247 252 255 257 259 263 266 268 270 271 272 273 274 276 276 277 279 281 281 281 281 280 280 279 278 277 277 279 277
115 117 164 97 81 72 75 74 75 34 30 23 357 52 18 313 104 107 305 105 210 21 266 290 144 172 118 120 113 37 178 138 188 236 179 187 186 193 167 162 175 188 204 176 153 165 177 187 190 206 224 228 229 230 233 233 240 245 249 251 256 257 261 264 266 268 269 271 272 273 275 277 279 279 279 278 278 278 278 277 277 276 276 276 275
129 129 123 103 103 101 92 57 19 36 48 15 27 62 176 39 307 143 171 291 246 344 275 207 13 18 49 51 117 171 270 147 226 194 181 199 159 237 180 168 161 172 164 209 166 164 176 182 177 192 211 212 220 231 228 231 236 238 240 246 249 253 256 260 264 267 270 272 275 278 279 280 281 281 280 279 279 279 279 279 277 275 277 279 275
128 131 122 110 92 92 101 84 30 63 65 75 325 44 312 147 242 67 27 333 111 213 206 250 64 7 262 201 172 231 191 236 225 198 186 179 167 200 213 149 160 177 191 163 138 153 162 184 186 187 202 194 203 225 229 230 231 232 236 240 245 248 253 257 263 269 273 278 281 283 284 285 284 283 282 280 280 282 284 282 279 281 281 278 274
116 128 138 125 130 134 131 123 129 110 121 126 126 213 209 218 128 51 23 161 265 191 186 79 215 176 212 183 185 230 179 208 216 234 174 173 171 209 193 163 146 147 122 122 217 222 154 185 197 134 166 182 190 201 224 230 234 235 234 236 242 247 250 258 267 274 280 283 286 287 287 286 286 286 286 287 288 289 289 287 284 283 279 280 280
131 136 124 129 133 136 137 142 143 155 116 184 161 179 359 254 114 106 204 239 228 133 153 263 136 175 204 131 202 181 232 259 244 198 175 153 178 184 190 182 131 131 156 167 205 226 142 156 102 125 143 179 187 188 212 213 214 221 225 231 238 244 253 262 269 276 280 284 286 287 287 287 288 291 294 295 296 295 293 292 291 288 287 289 290
144 145 136 132 138 146 153 141 146 131 166 191 154 140 218 221 109 178 238 228 152 176 200 227 4 94 9 256 202 158 216 298 217 238 114 174 181 120 105 100 78 60 162 196 189 133 113 128 126 105 152 190 256 251 217 192 212 213 207 217 225 234 246 254 263 271 276 282 285 288 291 292 293 295 300 303 303 305 302 300 299 299 300 303 305
138 137 138 144 153 148 141 158 154 184 178 177 152 194 196 159 168 223 225 255 122 157 151 148 64 341 291 310 35 18 327 218 194 327 333 300 140 108 69 105 122 141 279 47 83 162 150 110 140 161 168 161 213 224 244 215 167 189 202 210 217 224 233 248 262 273 279 283 288 291 292 295 300 309 313 316 317 315 312 309 309 312 315 320 323
147 145 136 145 143 147 162 172 183 152 228 106 178 267 141 217 175 197 182 266 49 154 134 53 111 248 253 227 137 173 220 318 351 316 325 315 8 129 173 127 152 172 199 168 173 205 138 157 157 159 189 198 196 220 218 199 152 149 104 168 198 201 230 241 259 275 281 285 290 294 299 308 321 325 325 324 323 324 328 329 327 328 334 336 345
152 139 146 148 150 159 176 201 170 160 154 175 195 212 189 222 156 257 54 49 356 324 100 101 22 288 244 190 13 345 45 47 329 32 351 335 329 215 155 147 165 193 174 199 172 202 172 148 164 166 184 194 184 222 210 236 104 84 100 118 141 189 224 246 266 279 284 288 294 301 313 329 337 336 333 332 336 342 348 353 351 352 0 9 13
143 139 151 154 157 170 191 229 125 172 153 212 195 231 174 177 102 251 72 338 27 14 6 110 181 279 22 348 123 4 339 338 61 29 238 224 330 326 178 173 173 185 191 179 198 128 127 182 183 160 161 202 194 239 98 90 93 99 97 121 136 158 226 269 277 278 283 290 300 316 337 348 351 351 350 352 357 5 9 6 12 17 21 21 22
147 156 153 153 157 163 168 148 131 232 171 198 216 247 212 139 138 165 125 183 244 79 353 18 304 96 20 3 354 324 240 138 118 243 232 30 278 40 10 15 88 32 354 98 149 154 127 192 38 139 160 188 132 109 100 95 112 121 138 145 154 181 208 257 264 275 287 299 319 344 353 4 12 9 12 17 22 22 21 22 24 29 28 29 22
156 154 157 150 159 181 171 165 162 216 154 232 193 212 169 141 164 178 179 162 60 168 181 241 336 342 123 232 45 315 336 80 194 232 74 163 230 246 155 177 87 185 282 73 39 126 165 148 156 145 115 92 69 90 102 99 135 140 141 157 157 195 216 240 247 277 307 326 344 359 10 28 27 27 30 32 36 35 38 34 32 26 30 24 17
165 157 172 170 163 174 187 164 189 171 138 237 199 180 162 168 183 165 164 138 176 231 83 157 305 296 166 158 234 250 188 245 68 339 25 319 348 341 284 91 146 139 46 26 3 22 160 175 127 77 31 84 65 53 125 142 134 119 156 159 174 205 217 227 259 275 326 337 359 11 29 40 38 38 36 43 49 47 46 39 28 26 23 18 11
172 165 176 184 159 182 170 169 148 209 161 208 203 41 202 157 130 144 174 183 179 350 235 230 187 174 272 183 208 249 177 261 208 168 130 217 35 313 315 272 27 104 135 104 269 174 296 115 141 95 69 101 105 99 36 113 125 139 200 159 183 205 204 229 199 111 343 7 10 24 48 49 48 43 46 57 52 50 45 36 28 19 14 12 8
174 166 186 180 155 182 153 165 162 198 201 105 160 116 87 23 141 174 174 171 193 177 219 239 241 187 243 226 206 243 174 197 302 156 185 166 175 256 293 345 356 138 139 161 200 144 237 94 83 96 80 9 136 122 321 132 168 173 125 152 178 201 169 218 144 127 45 33 22 58 55 59 61 58 69 63 56 48 42 34 23 12 6 8 9
173 192 176 174 159 171 175 166 173 161 148 150 158 178 161 96 225 191 169 179 193 184 204 237 251 237 259 293 322 305 271 234 180 245 180 179 200 175 29 352 352 332 268 98 251 184 171 113 111 110 114 342 123 157 253 163 190 146 143 150 163 171 154 205 164 115 95 83 77 70 64 65 73 82 78 70 57 47 39 31 18 9 5 7 9
182 182 187 141 174 162 171 173 163 163 161 176 181 148 154 146 348 126 10 190 235 188 194 232 220 232 281 324 323 289 337 340 314 236 341 36 26 52 88 38 351 322 255 184 182 257 183 163 132 133 137 194 221 172 226 123 147 152 150 151 149 162 175 199 146 140 123 106 88 81 73 71 84 86 80 68 54 43 36 24 16 10 7 6 7
192 161 207 158 164 162 169 178 165 170 172 178 186 166 165 175 166 207 195 190 210 194 238 225 241 220 226 240 233 317 327 305 338 3 30 41 34 17 65 128 86 328 321 8 3 297 158 138 75 135 169 180 202 208 211 185 136 225 201 152 139 158 199 182 155 138 126 109 99 91 88 90 90 91 82 70 56 42 30 20 15 12 9 5 5
188 173 189 176 160 159 173 180 173 170 176 179 188 176 175 181 184 212 178 211 187 196 217 229 252 243 196 212 216 257 281 325 334 322 98 56 2 36 16 78 119 54 333 347 22 346 323 9 152 320 128 196 200 205 194 161 168 151 54 145 157 172 176 177 149 143 131 127 114 117 114 108 100 93 83 74 59 43 28 20 16 14 9 3 0
194 182 176 175 170 189 172 186 169 185 183 181 186 182 183 186 193 187 205 213 183 193 208 233 217 237 254 207 175 202 230 260 242 265 103 123 157 335 284 118 139 112 201 163 304 325 302 335 355 192 265 219 199 206 238 124 155 155 196 136 165 161 170 161 149 151 147 139 134 131 125 117 110 101 93 83 74 54 33 21 18 14 9 1 359
193 176 169 169 185 184 187 193 179 176 191 189 173 183 184 191 194 191 206 199 208 206 206 206 245 220 246 278 132 221 228 240 251 232 148 147 187 259 273 165 158 126 147 115 34 325 0 315 323 15 192 231 89 168 82 139 179 206 193 143 148 156 162 156 152 158 159 153 148 144 137 131 128 123 113 107 98 82 45 26 20 14 9 1 358
198 182 170 182 183 191 193 201 193 186 184 202 185 182 187 187 205 204 194 199 200 221 227 210 224 182 206 221 238 252 285 315 298 304 149 161 170 199 228 230 144 187 211 131 246 274 289 295 316 324 307 7 328 148 73 283 179 210 219 170 152 152 160 155 162 163 166 163 156 154 149 146 141 137 126 120 114 94 63 38 20 11 7 358 356
189 196 187 191 185 192 194 198 202 181 181 189 196 173 185 186 217 224 220 177 197 209 212 253 249 212 187 202 214 200 252 259 267 269 265 165 180 200 247 226 196 197 180 188 217 260 271 275 301 289 293 332 306 80 235 225 149 224 236 149 148 168 171 165 166 171 171 171 166 164 160 157 152 145 141 134 123 106 83 49 19 11 4 354 352
188 192 192 205 193 186 202 192 207 181 175 180 197 186 177 190 203 213 234 226 192 209 209 210 236 271 199 196 214 228 204 234 251 246 254 244 183 193 194 214 230 224 222 191 206 213 269 282 267 262 288 300 274 234 204 99 284 263 308 266 188 182 174 155 169 171 180 178 173 171 169 166 160 154 152 150 135 123 108 73 24 6 360 352 347
200 194 185 204 199 184 199 193 189 199 172 181 199 198 186 188 197 220 207 200 212 217 218 228 232 223 244 211 214 221 223 209 222 252 256 253 254 222 193 194 211 217 216 206 189 213 235 251 269 290 258 258 303 335 342 272 263 234 245 272 271 253 153 168 168 169 178 184 177 178 177 172 163 160 158 157 148 141 133 121 85 2 351 352 344
195 204 189 194 197 191 197 201 182 197 183 182 191 208 200 186 194 210 237 199 191 206 221 220 218 228 227 222 225 222 221 225 210 210 230 264 271 277 277 213 201 233 232 175 192 200 213 256 243 267 306 309 297 302 313 281 249 237 208 236 325 286 265 163 173 152 177 183 183 184 184 176 167 164 166 159 152 157 161 173 180 168 46 359 345
200 193 204 188 189 193 199 205 196 190 198 189 187 202 209 201 194 203 217 232 216 199 207 218 225 217 217 227 222 226 229 224 220 218 227 228 240 258 244 239 242 245 265 259 255 216 220 234 260 253 263 260 260 253 249 268 271 281 279 232 223 248 254 290 144 126 152 178 190 195 193 182 174 171 170 168 165 167 165 176 200 173 139 74 14
214 194 193 201 194 190 197 201 207 196 197 198 192 202 209 204 200 205 205 212 227 232 220 215 220 224 229 223 228 226 223 224 229 226 224 229 221 235 254 241 206 214 232 246 231 240 230 234 232 260 243 260 267 260 244 237 254 276 287 306 314 286 230 216 127 147 156 176 180 197 201 201 192 184 181 174 172 174 175 185 198 197 141 110 69
215 216 194 197 201 191 191 197 205 204 198 203 200 201 215 214 199 201 213 208 213 220 224 229 228 224 227 229 224 226 230 225 226 229 228 220 222 228 229 237 245 236 226 215 219 226 231 242 250 244 253 248 242 262 255 234 225 228 248 280 276 269 265 194 173 159 170 183 206 188 186 186 185 189 187 181 179 180 180 189 196 194 158 155 149
213 217 218 194 194 199 191 196 203 203 200 204 205 204 207 221 217 199 204 216 215 215 223 221 227 233 224 223 229 222 223 226 224 230 230 226 214 226 230 232 220 219 239 248 231 220 221 228 234 242 237 246 239 235 276 13 275 242 212 221 251 248 248 217 203 216 169 180 184 186 184 184 184 188 169 190 191 189 190 192 195 199 185 166 162
209 215 223 219 191 197 198 195 201 206 204 205 206 205 204 208 223 223 208 209 220 223 218 225 225 228 239 239 229 227 214 211 214 216 225 232 227 219 224 228 223 212 217 230 248 263 254 245 251 239 252 261 265 276 272 256 242 229 217 207 228 211 191 256 267 229 195 181 202 174 186 181 179 184 171 192 204 193 201 202 184 199 192 167 173
199 206 215 228 220 191 194 192 196 206 211 210 207 204 201 204 208 220 220 215 218 224 227 231 233 228 232 239 251 247 232 211 208 209 214 223 229 234 232 211 220 221 222 219 223 231 250 260 253 255 262 258 254 237 238 242 244 249 252 244 241 240 230 235 234 245 222 254 245 198 182 190 183 184 181 203 191 192 191 205 187 189 187 179 181
206 190 201 213 228 225 197 193 196 206 215 220 201 197 202 204 205 210 219 220 216 221 224 230 237 242 245 241 238 249 259 247 214 212 209 215 219 222 232 240 244 231 223 224 226 224 230 237 240 240 247 256 260 271 272 269 262 237 205 183 208 193 195 212 257 265 235 241 241 222 223 181 177 191 201 196 188 182 190 198 189 171 177 179 176
214 204 198 206 213 229 231 208 201 207 214 220 205 194 197 202 204 209 214 221 224 220 223 229 231 233 240 249 253 252 244 239 226 209 218 217 219 222 225 230 233 237 250 234 223 226 227 236 237 237 239 238 241 236 242 242 239 312 272 305 268 281 264 243 230 230 221 195 233 199 248 238 227 234 194 191 185 181 190 172 165 165 175 180 176
279 233 232 212 209 220 233 244 222 205 209 211 205 194 197 198 203 209 217 217 222 228 226 224 228 232 235 235 245 255 262 246 225 218 199 213 218 220 223 228 231 226 227 242 248 239 237 229 232 238 233 238 250 252 245 259 269 275 306 284 269 263 252 250 242 244 247 171 202 213 241 244 218 229 250 185 165 180 161 160 165 170 178 176 168
331 311 267 236 229 220 226 239 247 244 221 204 197 192 197 199 202 203 214 220 225 229 228 226 225 224 226 233 239 245 247 264 271 245 222 210 211 218 226 231 234 239 237 233 238 245 245 249 246 243 237 228 238 234 234 221 219 248 246 249 242 248 249 244 242 241 236 172 190 208 244 250 219 230 242 160 141 148 162 165 167 176 179 168 167
226 279 315 298 255 230 229 228 239 249 246 231 196 194 194 198 202 197 209 216 222 229 234 236 234 231 223 223 229 237 241 242 249 256 237 216 213 218 224 229 232 236 236 234 235 234 237 233 242 246 246 242 241 240 241 235 232 226 217 228 230 235 247 269 285 272 273 246 241 224 251 254 221 225 236 138 148 145 161 169 176 179 172 162 168
232 235 251 262 286 269 239 238 238 237 241 243 204 195 199 200 198 194 206 212 218 226 229 237 245 242 244 243 234 233 232 238 240 244 246 224 204 213 221 230 238 241 241 236 233 232 231 232 233 236 240 239 237 239 240 236 235 234 239 241 240 247 256 259 256 254 252 232 217 214 236 253 223 222 230 136 147 144 162 171 194 185 167 164 172
278 288 281 279 286 287 273 258 245 246 244 248 229 194 199 204 194 201 208 213 219 223 228 231 236 239 240 241 243 250 246 239 233 231 233 230 228 217 213 220 229 238 242 239 228 229 230 230 231 235 240 245 246 244 243 249 244 253 265 243 232 227 228 238 241 239 242 245 243 226 211 239 229 210 223 144 163 156 175 185 180 194 171 170 177
223 229 253 266 262 269 280 285 284 274 263 262 239 197 201 196 189 200 208 211 220 220 228 229 229 241 248 242 239 241 244 248 246 229 223 215 230 233 231 232 232 237 241 244 239 222 225 224 226 229 231 235 241 243 244 243 243 239 227 241 239 237 241 231 247 247 262 260 254 237 271 255 207 197 211 157 121 176 177 169 166 175 178 183 190
246 248 257 258 260 254 253 243 239 248 262 273 288 229 203 191 191 207 205 209 217 223 224 228 226 233 238 243 240 237 236 238 237 238 225 213 226 231 235 239 242 244 244 244 244 243 226 234 247 247 255 254 250 244 242 240 238 225 227 237 243 243 247 247 247 260 269 256 249 216 242 247 210 221 191 183 188 149 176 156 167 167 174 181 187